[[{"header":{"parameterUnit":"m.s-1","parameterCategory":1,"la1":30.2991,"la2":30.254,"lo1":-89.0895,"lo2":-89.0444,"dy":0.0017,"dx":0.0017,"nx":28,"ny":28,"refTime":"2025-07-08T21:00:00:Z","depth":0,"parameterNumber":2,"parameterNumberName":"U-component_of_WINDS"},"data":[0,0,0,0,0,0,0,0,0,0,0,0,0,0,0,0,0,0,0,0,0,0,0,0,0,0,0,0,0,0,0,0,0,0,0,0,0,0,0,0,0,0,0,0,0,0,0,0,0,0,0,0,0,0,0,0,0,0,3.8538,3.8539,0,3.8586,3.8586,3.8587,3.8547,3.8545,3.8543,3.8542,3.8592,3.8594,3.8597,0,0,0,0,0,0,0,0,0,0,0,0,0,3.8416,3.8419,3.8538,3.8539,3.854,3.8585,3.8586,3.8587,3.8547,3.8545,3.8543,3.8541,3.8591,3.8594,3.8597,0,0,0,0,0,0,0,0,0,0,0,0,0,3.8467,3.842,3.8538,3.8525,3.8524,3.8585,3.8586,3.8587,3.8547,3.8545,3.8542,3.854,3.859,3.8594,3.8598,3.8675,0,0,3.8611,3.8613,0,0,0,0,0,0,0,0,3.8464,3.8472,3.8526,3.8526,3.8525,3.8558,3.8561,3.8616,3.8548,3.8539,3.8542,3.8539,3.8582,3.8587,3.8602,3.8677,3.8679,3.8612,3.8614,3.8616,3.8617,0,0,0,0,0,0,0,3.8461,3.8469,3.8557,3.8527,3.8527,3.8518,3.8522,3.8572,3.8574,3.8539,3.8536,3.8543,3.8582,3.8597,3.8602,3.868,3.8611,3.8615,3.8618,3.862,3.8823,3.8826,0,0,0,0,0,0,3.8458,3.8467,3.8556,3.8558,3.8488,3.8522,3.8527,3.855,3.8573,3.8575,3.8545,3.8541,3.8591,3.8597,3.8604,3.8697,3.8616,3.862,3.8623,3.8821,3.8824,3.8827,0,0,0,0,0,0,3.8456,3.8467,3.8554,3.8512,3.8522,3.8527,3.8553,3.8552,3.8568,3.8577,3.8578,3.856,3.859,3.8598,3.8658,3.8698,3.8622,3.8626,3.8817,3.8822,3.8825,3.8883,0,0,0,0,0,0,3.8453,3.8466,3.8494,3.8513,3.8525,3.8606,3.8555,3.8555,3.8575,3.857,3.8592,3.8593,3.8588,3.8652,3.8662,3.8703,3.8629,3.8814,3.8819,3.8824,3.8877,3.8888,3.8898,0,0,0,0,0,3.8448,3.8509,3.8496,3.8507,3.856,3.8608,3.8615,3.8608,3.8579,3.8608,3.8614,3.8593,3.8692,3.8658,3.867,3.8712,3.8811,3.8818,3.8824,3.8873,3.8886,3.8898,0,0,0,0,0,0,3.8495,3.8511,3.8497,3.8565,3.8586,3.8601,3.8638,3.8622,3.8652,3.8646,3.8636,3.8641,3.8705,3.8714,3.8676,3.8789,3.8747,3.8756,3.878,3.8793,3.8803,3.88,3.8633,0,0,0,0,0,3.8513,3.855,3.8562,3.8621,3.8632,3.8633,3.8654,3.8647,3.8668,3.8677,3.8687,3.8709,3.8746,3.877,3.8804,3.8878,3.8884,3.8913,3.8924,3.8932,3.894,3.8982,3.8996,3.8848,3.8848,3.8848,0,0,3.8551,3.8564,3.8588,3.863,3.8646,3.8686,3.8641,3.8684,3.8714,3.8683,3.8741,3.875,3.8774,3.8842,3.8873,3.8852,3.8982,3.894,3.8947,3.895,3.899,3.9004,3.9017,3.8852,3.8851,3.8851,0,0,3.864,3.8653,3.8704,3.8721,3.8745,3.8746,3.8758,3.8777,3.8782,3.8839,3.8817,3.8853,3.8915,3.8934,3.8952,3.9051,3.9032,3.9062,3.9116,3.9157,3.9169,3.9179,3.9216,3.9229,3.907,3.907,3.907,0,3.8684,3.8743,3.8733,3.8779,3.8799,3.8773,3.8825,3.8842,3.8876,3.8891,3.8867,3.8946,3.896,3.9033,3.9058,3.9072,3.9088,3.9059,3.9168,3.9178,3.9188,3.9223,3.9236,3.9073,3.9073,3.9073,3.9072,0,3.8797,3.8838,3.8876,3.891,3.8934,3.8983,3.8982,3.9008,3.8999,3.9003,3.9063,3.908,3.9117,3.9134,3.9125,3.9207,3.9193,3.9169,3.9127,3.9206,3.9238,3.9251,3.9078,3.9077,3.9076,3.9075,0,0,3.8916,3.8945,3.8959,3.8975,3.9,3.9032,3.9081,3.9117,3.914,3.9165,3.9207,3.9261,3.9239,3.9259,3.9253,3.9289,3.9368,3.926,3.9261,3.9281,3.9461,3.948,3.9495,3.9356,3.9359,3.9361,3.9459,0,3.9008,3.9092,3.9085,3.9165,3.9204,3.918,3.9223,3.9244,3.9249,3.9283,3.9289,3.9329,3.9296,3.9308,3.9343,3.9351,3.9404,3.9344,3.9396,3.9398,3.9391,3.9512,3.9532,3.9624,3.9472,3.9474,3.9475,0,3.9125,3.9155,3.9238,3.9259,3.9275,3.9314,3.9348,3.938,3.9404,3.9406,3.9429,3.9417,3.9467,3.9424,3.9494,3.9453,3.9475,3.9482,3.9485,3.9491,3.9442,3.9522,3.9653,3.9667,3.9495,3.9494,3.9492,0,3.9206,3.9266,3.9324,3.9338,3.9364,3.9392,3.9404,3.9425,3.9448,3.9478,3.9493,3.9529,3.9549,3.9577,3.9576,3.9544,3.9648,3.9604,3.9652,3.9652,3.9675,3.9674,3.9813,3.9687,3.9687,3.9687,3.9686,0,3.931,3.9362,3.9361,3.9397,3.9456,3.9449,3.9507,3.9516,3.9536,3.9574,3.9556,3.9593,3.9588,3.9625,3.9624,3.9684,3.9692,3.9696,3.9695,3.9698,3.9698,3.9712,3.9706,3.969,3.9689,3.9689,3.9688,0,3.941,3.9411,3.9473,3.9493,3.9499,3.9542,3.9558,3.9593,3.9597,3.9646,3.9657,3.9664,3.9707,3.9708,3.9757,3.9757,3.983,3.9822,3.9822,3.9821,3.9869,3.9865,4.0023,4.0044,3.9904,3.9905,3.9906,0,3.9476,3.9516,3.954,3.9564,3.9578,3.9617,3.9641,3.9636,3.9661,3.9692,3.9724,3.9765,3.9798,3.9868,3.9878,3.9916,3.9909,3.9962,3.9915,3.9917,3.9911,3.9909,3.9914,3.9971,3.9973,3.9974,3.9975,0,3.9595,3.9594,3.9628,3.9664,3.9692,3.972,3.9746,3.9767,3.9765,3.9795,3.9838,3.9864,3.9914,3.9956,3.9993,4.0007,3.9992,3.999,4.0003,4.0007,4.0006,4.0009,3.9848,3.9986,3.9985,3.9984,3.9984,3.9983,3.9681,3.9716,3.9739,3.9778,3.9797,3.9822,3.9856,3.9865,3.9901,3.9941,3.9936,3.9986,4.001,4.0058,4.0075,4.0114,4.0096,4.0115,4.012,4.0125,4.0131,3.9999,4.0121,4.012,4.012,4.012,4.012,0,3.98,3.9813,3.985,3.9886,3.9918,3.99,3.9928,3.9956,3.9999,4.0023,4.0056,4.0107,4.0148,4.0161,4.0201,4.023,4.0224,4.0241,4.0239,4.0243,4.0144,4.0129,4.0245,4.0245,4.0245,4.0245,4.0245,4.0245,3.9865,3.9924,3.9926,3.9995,4.0008,4.0056,4.0074,4.0097,4.0116,4.0174,4.0208,4.0216,4.0237,4.0278,4.0315,4.0318,4.0334,4.0354,4.0355,4.0262,4.025,4.0238,4.0224,4.0358,4.0358,4.0451,4.0451,4.0452]},{"header":{"parameterUnit":"m.s-1","parameterCategory":1,"la1":30.2991,"la2":30.254,"lo1":-89.0895,"lo2":-89.0444,"dy":0.0017,"dx":0.0017,"nx":28,"ny":28,"refTime":"2025-07-08T21:00:00:Z","depth":0,"parameterNumber":3,"parameterNumberName":"V-component_of_WINDS"},"data":[0,0,0,0,0,0,0,0,0,0,0,0,0,0,0,0,0,0,0,0,0,0,0,0,0,0,0,0,0,0,0,0,0,0,0,0,0,0,0,0,0,0,0,0,0,0,0,0,0,0,0,0,0,0,0,0,0,0,-1.0677,-1.0678,0,-1.0743,-1.0744,-1.0744,-1.0767,-1.0767,-1.0767,-1.0766,-1.0833,-1.0835,-1.0837,0,0,0,0,0,0,0,0,0,0,0,0,0,-1.0572,-1.0574,-1.0677,-1.0678,-1.0679,-1.0743,-1.0744,-1.0745,-1.0767,-1.0767,-1.0766,-1.0766,-1.0832,-1.0835,-1.0837,0,0,0,0,0,0,0,0,0,0,0,0,0,-1.0626,-1.0575,-1.0677,-1.0698,-1.07,-1.0743,-1.0744,-1.0745,-1.0767,-1.0767,-1.0766,-1.0766,-1.0831,-1.0834,-1.0837,-1.0864,0,0,-1.0847,-1.0848,0,0,0,0,0,0,0,0,-1.0623,-1.063,-1.0694,-1.0696,-1.0699,-1.0746,-1.0731,-1.0785,-1.0767,-1.0742,-1.0766,-1.0766,-1.0804,-1.081,-1.0823,-1.0867,-1.087,-1.0847,-1.0849,-1.085,-1.0851,0,0,0,0,0,0,0,-1.0619,-1.0627,-1.0703,-1.0695,-1.0698,-1.0704,-1.0711,-1.0741,-1.0774,-1.0744,-1.0746,-1.0753,-1.0806,-1.082,-1.0824,-1.0871,-1.0847,-1.0849,-1.0851,-1.0852,-1.0942,-1.0943,0,0,0,0,0,0,-1.0612,-1.0624,-1.0701,-1.0705,-1.0659,-1.0706,-1.0714,-1.0732,-1.0774,-1.078,-1.0754,-1.0754,-1.0815,-1.0821,-1.0827,-1.0862,-1.085,-1.0853,-1.0854,-1.0942,-1.0942,-1.0943,0,0,0,0,0,0,-1.061,-1.0619,-1.0698,-1.0665,-1.0676,-1.0709,-1.0728,-1.0733,-1.0747,-1.0781,-1.0787,-1.0762,-1.0815,-1.0823,-1.0855,-1.0865,-1.0854,-1.0857,-1.0941,-1.0942,-1.0943,-1.0932,0,0,0,0,0,0,-1.0606,-1.0618,-1.0627,-1.0665,-1.0677,-1.0725,-1.0728,-1.0735,-1.0752,-1.0754,-1.0791,-1.0796,-1.0815,-1.085,-1.0858,-1.0869,-1.0859,-1.094,-1.0941,-1.0942,-1.0931,-1.0932,-1.0933,0,0,0,0,0,-1.0603,-1.0621,-1.0628,-1.0637,-1.069,-1.0725,-1.0733,-1.0754,-1.0753,-1.0764,-1.0786,-1.0795,-1.0862,-1.0853,-1.0862,-1.0874,-1.094,-1.0941,-1.0942,-1.0931,-1.0932,-1.0933,0,0,0,0,0,0,-1.0583,-1.0626,-1.0634,-1.0665,-1.0692,-1.0729,-1.0743,-1.0754,-1.078,-1.0781,-1.0806,-1.0814,-1.0845,-1.0863,-1.0852,-1.0903,-1.0902,-1.0905,-1.089,-1.0891,-1.0892,-1.0887,-1.0862,0,0,0,0,0,-1.0582,-1.0607,-1.0644,-1.0667,-1.068,-1.071,-1.0725,-1.074,-1.0768,-1.0779,-1.0804,-1.0831,-1.0858,-1.0876,-1.0903,-1.0934,-1.0944,-1.0947,-1.0948,-1.0948,-1.095,-1.0971,-1.0973,-1.0947,-1.0947,-1.0947,0,0,-1.0581,-1.0608,-1.0621,-1.0664,-1.0686,-1.0712,-1.0719,-1.0745,-1.0765,-1.0783,-1.0816,-1.0835,-1.0867,-1.0899,-1.0915,-1.0915,-1.096,-1.095,-1.095,-1.0952,-1.0972,-1.0975,-1.0977,-1.0948,-1.0948,-1.0948,0,0,-1.0591,-1.0614,-1.0637,-1.066,-1.0694,-1.0713,-1.0719,-1.0756,-1.0769,-1.0803,-1.0818,-1.0842,-1.0888,-1.0911,-1.0928,-1.0951,-1.0961,-1.0959,-1.0963,-1.0982,-1.0984,-1.0986,-1.0996,-1.0998,-1.0961,-1.0961,-1.0961,0,-1.0585,-1.0625,-1.0648,-1.0674,-1.0693,-1.0713,-1.0737,-1.0758,-1.0798,-1.0812,-1.0811,-1.0872,-1.0894,-1.0934,-1.0939,-1.0952,-1.0961,-1.0955,-1.0982,-1.0984,-1.0986,-1.0996,-1.0999,-1.0961,-1.0961,-1.0961,-1.0961,0,-1.0616,-1.0643,-1.0658,-1.0698,-1.0719,-1.0744,-1.0772,-1.0791,-1.0804,-1.0824,-1.0859,-1.0887,-1.0921,-1.0932,-1.0944,-1.0973,-1.0973,-1.0977,-1.0976,-1.0988,-1.0997,-1.1001,-1.096,-1.096,-1.0961,-1.0961,0,0,-1.0615,-1.0669,-1.0674,-1.0694,-1.0734,-1.0755,-1.0782,-1.0817,-1.0833,-1.0861,-1.0885,-1.0925,-1.093,-1.095,-1.0965,-1.0982,-1.1001,-1.0985,-1.0986,-1.0988,-1.1037,-1.1034,-1.1038,-1.1008,-1.1008,-1.1009,-1.1035,0,-1.0631,-1.0681,-1.0703,-1.0743,-1.0769,-1.0789,-1.0813,-1.084,-1.086,-1.0886,-1.0908,-1.0937,-1.094,-1.0953,-1.0971,-1.0995,-1.1011,-1.0993,-1.1031,-1.1032,-1.1023,-1.1042,-1.1039,-1.1062,-1.1038,-1.1039,-1.1039,0,-1.0657,-1.0686,-1.0729,-1.0768,-1.078,-1.0801,-1.0835,-1.0859,-1.0892,-1.0905,-1.0929,-1.0945,-1.0975,-1.0972,-1.1015,-1.1003,-1.102,-1.1034,-1.1036,-1.104,-1.1037,-1.1048,-1.1069,-1.1073,-1.1045,-1.1045,-1.1044,0,-1.0653,-1.0703,-1.0736,-1.0752,-1.0798,-1.0812,-1.0832,-1.0864,-1.0884,-1.0915,-1.0928,-1.0961,-1.0979,-1.1005,-1.103,-1.1025,-1.1071,-1.107,-1.1084,-1.1084,-1.1093,-1.1092,-1.1117,-1.1102,-1.1102,-1.1102,-1.1102,0,-1.067,-1.0695,-1.0735,-1.0755,-1.0784,-1.0811,-1.084,-1.0861,-1.089,-1.0915,-1.0934,-1.0958,-1.0989,-1.1016,-1.1036,-1.1069,-1.1077,-1.109,-1.1095,-1.1088,-1.1087,-1.11,-1.1099,-1.1103,-1.1103,-1.1103,-1.1103,0,-1.067,-1.0698,-1.0735,-1.0776,-1.0787,-1.0807,-1.0843,-1.0864,-1.0886,-1.0918,-1.0927,-1.0961,-1.0995,-1.1022,-1.1065,-1.1079,-1.1115,-1.112,-1.1104,-1.1107,-1.112,-1.1118,-1.1155,-1.1162,-1.1141,-1.1141,-1.1142,0,-1.0679,-1.0699,-1.0744,-1.0762,-1.0782,-1.0812,-1.0833,-1.0861,-1.0882,-1.0922,-1.0938,-1.0973,-1.1003,-1.1056,-1.1085,-1.1119,-1.1126,-1.1137,-1.1131,-1.1125,-1.1128,-1.1127,-1.113,-1.1137,-1.1137,-1.1137,-1.1137,0,-1.0692,-1.0706,-1.0735,-1.0771,-1.0795,-1.0824,-1.0854,-1.0868,-1.0901,-1.0924,-1.096,-1.0983,-1.1029,-1.1064,-1.1102,-1.1123,-1.1136,-1.1139,-1.1144,-1.1138,-1.1129,-1.1136,-1.1106,-1.1138,-1.1138,-1.1138,-1.1138,-1.1138,-1.0698,-1.0718,-1.0753,-1.0786,-1.0811,-1.0839,-1.0861,-1.0887,-1.0917,-1.0957,-1.0972,-1.1008,-1.1043,-1.1095,-1.1117,-1.1146,-1.1148,-1.1155,-1.1157,-1.1158,-1.1158,-1.1124,-1.1153,-1.1153,-1.1153,-1.1153,-1.1153,0,-1.0713,-1.0737,-1.0768,-1.0809,-1.0836,-1.0847,-1.0881,-1.0902,-1.0934,-1.0965,-1.0995,-1.1037,-1.1072,-1.1105,-1.1142,-1.1159,-1.1167,-1.1168,-1.1167,-1.1173,-1.1154,-1.1147,-1.1162,-1.1162,-1.1162,-1.1162,-1.1162,-1.1162,-1.0724,-1.0759,-1.0777,-1.0825,-1.085,-1.0886,-1.0905,-1.0931,-1.0957,-1.1003,-1.1032,-1.1054,-1.1086,-1.1126,-1.116,-1.1168,-1.1182,-1.1182,-1.1192,-1.1175,-1.1174,-1.1172,-1.1165,-1.1184,-1.1184,-1.1208,-1.1209,-1.1209]}]]